This is the latest recevied weather packets stored in our database for station/object DH1FR-13. If no packets are shown the sender has not sent any weather packets the latest 10 day(s).
| Time | Temp. | Humidity | Pressure | Rain* | Wind** | Luminosity | Snow |
|---|---|---|---|---|---|---|---|
| 1777645200 | 21.67° C | 36% | 1028.2 hPa | 0 mm | 0.45 m/s, 71° | - | - |
| 1777644601 | 22.22° C | 35% | 1028.6 hPa | 0 mm | 0 m/s | - | - |
| 1777644000 | 21.67° C | 36% | 1028.6 hPa | 0 mm | 0 m/s | - | - |
| 1777642801 | 21.11° C | 36% | 1028.9 hPa | 0 mm | 0 m/s | - | - |
| 1777642201 | 21.67° C | 35% | 1028.9 hPa | 0 mm | 0 m/s | - | - |
| 1777641601 | 21.67° C | 36% | 1029.2 hPa | 0 mm | 0 m/s | - | - |
| 1777640401 | 22.22° C | 36% | 1029.5 hPa | 0 mm | 0 m/s | - | - |
| 1777639801 | 21.11° C | 38% | 1029.6 hPa | 0 mm | 0 m/s | - | - |
| 1777638600 | 21.11° C | 38% | 1029.6 hPa | 0 mm | 0 m/s | - | - |
| 1777638001 | 21.11° C | 37% | 1029.9 hPa | 0 mm | 0 m/s | - | - |
| 1777637401 | 20.56° C | 37% | 1030 hPa | 0 mm | 0 m/s | - | - |
| 1777636200 | 20° C | 38% | 1029.9 hPa | 0 mm | 0 m/s | - | - |
| 1777635601 | 20° C | 38% | 1030.4 hPa | 0 mm | 0 m/s | - | - |
| 1777635001 | 19.44° C | 37% | 1030.3 hPa | 0 mm | 0 m/s | - | - |
| 1777634401 | 18.89° C | 39% | 1030.5 hPa | 0 mm | 0.45 m/s, 99° | - | - |
| 1777633800 | 18.89° C | 39% | 1030.8 hPa | 0 mm | 0 m/s | - | - |
| 1777633200 | 18.89° C | 39% | 1030.7 hPa | 0 mm | 0 m/s | - | - |
| 1777632601 | 18.89° C | 39% | 1030.9 hPa | 0 mm | 0 m/s | - | - |
| 1777632000 | 18.33° C | 40% | 1030.9 hPa | 0 mm | 0 m/s | - | - |
| 1777631401 | 18.89° C | 39% | 1031.3 hPa | 0 mm | 0 m/s | - | - |
| 1777630800 | 18.89° C | 41% | 1031.3 hPa | 0 mm | 0 m/s | - | - |
| 1777630201 | 17.22° C | 41% | 1031.3 hPa | 0 mm | 0 m/s | - | - |
| 1777629600 | 17.22° C | 42% | 1031.4 hPa | 0 mm | 0 m/s | - | - |
| 1777629000 | 16.67° C | 43% | 1031.4 hPa | 0 mm | 0 m/s | - | - |
| 1777628401 | 16.67° C | 42% | 1031.5 hPa | 0 mm | 0 m/s | - | - |
* Rain latest hour (hover to see other rain measurements)
** Current wind speed in m/s (hover to see current wind gust speed)